Location: Newark
(49.4569°N, 2.2158°E)
Time: 02:20:01
(UTC+00:00)

N. Korean satellite - Visible Passes

Search period start: 13 December 2019 00:00
Search period end: 23 December 2019 00:00
Orbit: 455 x 506 km, 97.2° (Epoch: 12 December)

Date Brightness Start Highest point End Pass type
(mag) Time Alt. Az. Time Alt. Az. Time Alt. Az.
13 Dec 8.3 05:18:41 10° NNE 05:21:56 33° E 05:25:06 10° SSE visible
13 Dec 7.8 06:52:29 10° NNW 06:55:08 20° WNW 06:57:45 10° WSW visible
13 Dec 8.9 17:31:26 10° SSW 17:34:38 27° W 17:37:50 10° NW visible
14 Dec 9.5 04:53:52 10° NE 04:56:18 18° E 04:58:43 10° SE visible
14 Dec 7.0 06:26:35 10° N 06:29:52 36° WNW 06:33:04 10° SW visible
14 Dec 7.5 17:05:29 10° S 17:09:05 53° W 17:12:42 10° NNW visible
15 Dec 6.3 06:00:59 10° N 06:04:30 74° WNW 06:07:56 10° SSW visible
15 Dec 6.5 16:39:58 10° SSE 16:43:38 77° ENE 16:47:18 10° N visible
16 Dec 7.3 05:35:34 10° NNE 05:39:02 53° E 05:42:25 10° S visible
16 Dec 9.6 17:49:12 10° SW 17:51:49 18° W 17:54:25 10° NW visible
17 Dec 8.7 05:10:27 10° NE 05:13:29 26° E 05:16:26 10° SSE visible
17 Dec 7.6 06:43:56 10° NNW 06:46:48 24° WNW 06:49:37 10° WSW visible
17 Dec 8.5 17:22:51 10° SSW 17:26:13 33° W 17:29:34 10° NNW visible
18 Dec 9.7 04:45:51 10° NE 04:47:49 14° E 04:49:45 10° SE visible
18 Dec 6.7 06:18:08 10° N 06:21:29 44° WNW 06:24:46 10° SW visible
18 Dec 7.0 16:57:03 10° S 17:00:42 66° WSW 17:04:19 10° NNW visible
19 Dec 6.4 05:52:35 10° NNE 05:56:05 88° ESE 05:59:31 10° SSW visible
19 Dec 6.6 16:31:39 10° SSE 16:35:16 62° ENE 16:38:51 10° N visible
19 Dec 10.0 18:07:35 10° WSW 18:09:02 12° W 18:10:28 10° WNW visible
20 Dec 7.8 05:27:15 10° NNE 05:30:35 42° E 05:33:51 10° S visible
20 Dec 8.0 07:01:27 10° NNW 07:03:41 16° WNW 07:05:53 10° WSW visible
20 Dec 9.3 17:40:28 10° SW 17:43:21 22° W 17:46:14 10° NW visible
21 Dec 9.1 05:02:15 10° NE 05:04:59 21° E 05:07:42 10° SE visible
21 Dec 7.3 06:35:23 10° N 06:38:25 28° WNW 06:41:25 10° SW visible
21 Dec 8.1 17:14:19 10° S 17:17:47 41° W 17:21:13 10° NNW visible
22 Dec 10.0 04:38:04 10° ENE 04:39:18 11° E 04:40:32 10° ESE visible
22 Dec 6.5 06:09:39 10° N 06:13:05 56° WNW 06:16:26 10° SSW visible
22 Dec 6.7 16:48:38 10° SSE 16:52:17 83° W 16:55:54 10° NNW visible
